This demonstration page uses our WeatherBlox Daily Observations layout. Learn more.

Left ArrowRight Arrow

Hourly Observations for September 14, 2015

Temp ( °F °C ) Dew Point ( °F °C ) Humidity (%) Winds ( mph kmh ) Pressure ( in mb ) Visibility ( mi km ) Precip ( " mm )
12:52 am 00:52 Mostly Clear 67 19.4 57 13.9 71 71 SSE 17 28 29.78 1008 10 16 0.00 0.00
1:52 am 01:52 Clear 66 18.9 57 13.9 73 73 S 17 28 29.76 1008 10 16 0.00 0.00
2:52 am 02:52 Clear 65 18.3 57 13.9 76 76 SSE 13 20 29.76 1008 10 16 0.00 0.00
3:52 am 03:52 Clear 64 17.8 57 13.9 78 78 SSE 15 24 29.75 1008 10 16 0.00 0.00
4:52 am 04:52 Clear 63 17.2 57 13.9 81 81 SSE 14 22 29.75 1008 10 16 0.00 0.00
5:52 am 05:52 Clear 63 17.2 56 13.3 78 78 SSE 12 19 29.76 1008 10 16 0.00 0.00
6:52 am 06:52 Mostly Clear 63 17.2 56 13.3 78 78 SSE 15 24 29.77 1008 10 16 0.00 0.00
7:52 am 07:52 Partly Cloudy 64 17.8 56 13.3 75 75 SSE 15 24 29.79 1009 10 16 0.00 0.00
8:52 am 08:52 Partly Cloudy 67 19.4 57 13.9 71 71 SSE 17 28 29.79 1009 10 16 0.00 0.00
9:52 am 09:52 Partly Cloudy 71 21.7 58 14.4 63 63 S 18 30 29.80 1009 10 16 0.00 0.00
10:52 am 10:52 Partly Cloudy 73 22.8 58 14.4 59 59 S 17 28 29.82 1010 10 16 0.00 0.00
11:52 am 11:52 Partly Cloudy 76 24.4 60 15.6 58 58 SSE 16 26 29.82 1010 10 16 0.00 0.00
12:52 pm 12:52 Partly Cloudy 80 26.7 61 16.1 52 52 SSE 17 28 29.81 1010 10 16 0.00 0.00
1:52 pm 13:52 Partly Cloudy 82 27.8 62 16.7 51 51 SSE 18 30 29.80 1009 10 16 0.00 0.00
2:52 pm 14:52 Partly Cloudy 83 28.3 62 16.7 49 49 SSE 24 39 29.79 1009 10 16 0.00 0.00
3:52 pm 15:52 Partly Cloudy 84 28.9 62 16.7 48 48 S 22 35 29.78 1008 10 16 0.00 0.00
4:52 pm 16:52 Partly Cloudy 85 29.4 63 17.2 48 48 S 20 31 29.77 1008 10 16 0.00 0.00
5:52 pm 17:52 Partly Cloudy 84 28.9 64 17.8 51 51 SSE 22 35 29.77 1008 10 16 0.00 0.00
6:52 pm 18:52 Partly Cloudy 81 27.2 65 18.3 58 58 SSE 13 20 29.76 1008 10 16 0.00 0.00
7:52 pm 19:52 Partly Cloudy 79 26.1 65 18.3 62 62 SSE 17 28 29.77 1008 10 16 0.00 0.00
8:52 pm 20:52 Partly Cloudy 77 25 65 18.3 66 66 SSE 13 20 29.79 1009 10 16 0.00 0.00
9:52 pm 21:52 Partly Cloudy 76 24.4 63 17.2 64 64 S 23 37 29.82 1010 10 16 0.00 0.00
10:52 pm 22:52 Mostly Cloudy 75 23.9 61 16.1 62 62 S 22 35 29.83 1010 10 16 0.00 0.00
11:52 pm 23:52 Mostly Cloudy 73 22.8 61 16.1 66 66 S 18 30 29.85 1011 10 16 0.00 0.00

Powered by AerisWeather